Regional Weather Roundup
Issued by NWS

Home | Current Version | Previous Version | Graphics & Text | Print | Product List | Glossary On
Versions: 1 2 3 4 5 6 7 8 9 10 11 12 13 14 15 16 17 18 19 20 21 22 23 24 25 26 27 28 29 30 31 32 33 34 35 36 37 38 39 40 41 42 43 44 45 46 47 48 49 50
256
ASUS43 KLSX 230310
RWRMO

WEATHER SUMMARY FOR MISSOURI
NATIONAL WEATHER SERVICE SPRINGFIELD MO
1000 PM CDT SAT JUL 22 2017

NOTE: "FAIR" INDICATES FEW OR NO CLOUDS BELOW 12,000 FEET WITH NO
       SIGNIFICANT WEATHER AND/OR OBSTRUCTIONS TO VISIBILITY.
       CURRENT SKY AND/OR WEATHER CONDITIONS ARE NOT AVAILABLE FOR
       CHILLICOTHE AND FARMINGTON.

MOZ001>031-035>038-043-044-053-054-230400-
...NORTHERN AND WESTERN MISSOURI...

CITY           SKY/WX    TMP DP  RH WIND       PRES   REMARKS
KANSAS CTY INT TSTM      84  80  88 NW15      29.87R HX  97
KANSAS C DTWN  TSTM      88  81  79 N10G20    29.82R HX 106
LEE`S SUMMIT   TSTM      76  73  91 S16       29.85R
ST JOSEPH      CLOUDY    82  78  88 NW9       29.87R HX  91
CHILLICOTHE      N/A     85  76  74 N7        29.86R HX  94
KIRKSVILLE     CLOUDY    84  76  76 N10       29.85R HX  93

$$
MOZ066>068-077>081-088>096-101>105-230400-
...SOUTHWEST MISSOURI...

CITY           SKY/WX    TMP DP  RH WIND       PRES   REMARKS
SPRINGFIELD    CLEAR     84  74  71 S8        29.89R HX  91
JOPLIN         CLEAR     89  74  60 S13       29.87R HX  98
BRANSON        CLEAR     84  68  58 S5        29.93R

$$
MOZ032>034-039>042-045>050-055>058-069>072-230400-
...CENTRAL MISSOURI...

CITY           SKY/WX    TMP DP  RH WIND       PRES   REMARKS
COLUMBIA       CLEAR     88  77  69 NW5       29.83S HX 100
JEFFERSON CITY CLEAR     88  80  77 CALM      29.81R HX 104
ROLLA          CLEAR     83  74  74 S8        29.86R
SEDALIA        PTCLDY    87  81  82 N3        29.84F HX 104
WARRENSBURG    MOCLDY    90  75  62 CALM      29.83R HX 100
OSAGE BEACH    CLEAR     91  73  55 SW5       29.86R HX  99

$$
MOZ051-052-059>065-230400-
...EAST CENTRAL MISSOURI...

CITY           SKY/WX    TMP DP  RH WIND       PRES   REMARKS
ST LOUIS INTL  MOCLDY    96  74  48 NW6       29.79R THUNDER HX 107
SPIRIT OF STL  TSTM      85  75  72 SW15G25   29.79R HX  93
ST CHARLES     PTCLDY    88  79  74 NW7       29.77R HX 103

$$
MOZ072>076-082>087-097>100-106>115-230400-
...SOUTH CENTRAL AND SOUTHEAST MISSOURI...

CITY           SKY/WX    TMP DP  RH WIND       PRES   REMARKS
CAPE GIRARDEAU CLEAR     83  75  77 S8        29.85R HX  90
FARMINGTON     CLEAR     86  72  62 SW8       29.87R HX  92
POPLAR BLUFF   CLEAR     83  77  82 S6        29.87R HX  92
WEST PLAINS    CLEAR     84  72  67 S5        29.93R

$$




USA.gov is the U.S. government's official web portal to all federal, state and local government web resources and services.